Showing default

HULIANWANG DIGUI-116, 66955

Orbit data source: Space-Track

HULIANWANG DIGUI-116, 66955 is a payload satellite owned by Zhongguo Xingwang (CN) in LEO that was launched on Mon, 08 Dec 2025 UTC via a CHANG ZHENG 6A launch vehicle from the Taiyaun Space Center, China (TSC). Payload-class satellites include a variety of spacecraft equipped with specific instruments for various scientific and technological missions. These include communications satellites like Starlink; space stations such as the ISS; scientific satellites like the Hubble; Earth observation satellites from companies like Planet Labs, Umbra, and HawkEye 360; GPS; miniature CubeSats for education and research; and military/defense satellites.

Loading next visibility...
Identifier
66955, 2025-287C
Orbit
LEO
Country
Flag of CNCN / PRC
Related business
Manufacturer
CAST
Mission
Operational Civil Communications
Bus & Motor
XINGWANG C, Unknown motor
Mass
~700 kg wet, ~700 kg dry
Launch date (UTC)
2025-12-08 (6 months ago)
Launch vehicle
CHANG ZHENG 6A
Launch site
Taiyaun Space Center, China (TSC)
Object type
Payload
Rocket body
Debris
Shape & HBR
Box + 2 Pan, 14.5 m
Radar Cross Section
5.935 m², Large (>1 m²)

Expand to show TLE details & history
Last TLE update: 11 hours ago

TLE from 11 hours ago
0 HULIANWANG DIGUI-116
1 66955U 25287C   26171.37529031  .00000033  00000-0  42406-4 0  9998
2 66955  86.4893 281.1891 0002197 110.2178 249.9193 13.24411600 25769
Epoch: 2026-06-20T09:00Z
TLE epoch observation values (Epoch: 2026-06-20T09:00:25.082Z)
Latitude
0.00002°
Longitude
-122.50622°
Altitude
1,171.38 km
Speed
7.267 km/s
True Right ascension
18h 44m 45s
True Declination
0° 00' 00"
Sunlit
Object was in full shadow at epoch
Visualization orbit readout
Latitude
Unknown
Longitude
Unknown
Altitude
Unknown
Speed
Unknown
Apparent Right ascension
Unknown
Apparent Declination
Unknown
Sunlit
N/A
Visualization observer readout
Local Sidereal Time
07:13:09
Azimuth
Unknown
Elevation
Unknown
Doppler factor
Unknown
Orbital elements
Apogee altitude
1,166.693 km
Perigee altitude
1,163.379 km
Semi-major axis
7,543.173 km
Eccentricity
0.00022
Inclination
86.4893°
RAAN
281.1891°
Arg. of periapsis
110.2178°
True anomaly
249.89566°
Mean anomaly
249.9193°
Eccentric anomaly
249.90748°
Mean motion
3.31293 °/min
Orbital period
108.67 mins
BSTAR
0.000042406
Loading maneuver chart data...
Computing Atmospheric mass density...
Loading historical data...
Loading historical data...
Loading historical data...
Loading historical data...
Loading historical data...
Loading historical data...
Loading historical data...

Documentation

Showing up to 5 results
|